Total_Precipitation_Accumulation
2.74 2.85 3.21 2.57 2.08 1.85 1.74 1.80 1.91 1.77 1.70 1.73 1.81 1.83 1.86 1.93 1.98 2.14 2.23 2.25 2.39 2.73 3.03 3.29 3.39 3.47 3.61 3.70 3.47 3.22 3.18 3.36 3.45 3.27 3.11 2.86 2.60 2.70 2.93 3.06 2.94 2.15 2.18
2.26 2.45 2.73 2.27 1.84 1.67 1.66 1.82 1.85 1.77 1.70 1.71 1.70 1.73 1.84 1.94 1.97 2.10 2.16 2.38 2.64 2.90 3.03 3.18 3.20 3.22 3.31 3.23 3.03 2.84 2.90 3.30 3.69 3.50 3.20 2.79 2.73 2.72 2.91 2.96 2.91 2.20 2.16
1.61 1.94 2.05 1.99 1.72 1.60 1.60 1.73 1.66 1.60 1.65 1.79 1.81 1.86 1.95 2.09 2.09 2.08 2.17 2.45 2.74 2.95 3.06 3.07 3.03 3.01 2.95 2.90 2.81 2.64 2.93 3.40 3.72 3.73 3.62 2.56 2.43 2.86 2.99 2.87 2.47 2.08 2.04
1.18 1.46 1.56 1.69 1.60 1.50 1.37 1.47 1.55 1.46 1.51 1.67 1.94 2.15 2.24 2.39 2.37 2.38 2.47 2.61 2.81 2.82 2.92 2.95 2.90 2.77 2.76 2.73 2.63 2.71 2.89 3.34 3.77 4.10 3.47 2.32 1.95 2.54 2.89 2.59 2.28 2.17 2.09
1.08 1.20 1.43 1.39 1.30 1.37 1.34 1.42 1.54 1.57 1.58 1.60 1.87 2.18 2.42 2.62 2.66 2.73 2.83 2.93 2.99 2.80 2.68 2.74 2.77 2.54 2.56 2.57 2.63 2.84 2.97 3.49 4.07 3.87 2.78 2.39 2.28 2.50 2.58 2.57 2.47 2.44 2.29
0.92 0.98 1.13 1.32 1.29 1.33 1.35 1.36 1.37 1.49 1.65 1.78 1.99 2.27 2.50 2.69 2.85 3.03 3.02 3.06 3.02 2.79 2.72 2.69 2.64 2.50 2.55 2.62 2.80 2.86 2.99 3.57 3.67 2.65 2.25 2.16 2.17 2.46 2.43 2.66 2.67 2.62 2.50
0.77 0.92 1.06 1.25 1.31 1.33 1.28 1.32 1.35 1.42 1.69 1.90 1.97 2.08 2.26 2.45 2.80 2.93 2.91 2.91 2.77 2.66 2.60 2.63 2.64 2.52 2.49 2.59 2.89 2.86 3.01 3.32 2.77 2.08 2.13 2.21 2.01 2.11 2.33 2.68 2.75 2.64 2.38
0.80 0.78 0.99 1.20 1.29 1.29 1.24 1.29 1.37 1.56 1.78 1.96 1.94 1.95 2.05 2.28 2.54 2.57 2.55 2.54 2.46 2.52 2.56 2.61 2.61 2.45 2.35 2.61 2.78 2.77 2.90 2.80 2.11 1.86 1.87 1.85 1.81 1.97 2.31 2.57 2.59 2.58 2.35
1.00 0.91 0.98 1.05 1.08 1.17 1.30 1.37 1.60 1.82 1.93 1.96 1.90 1.92 2.09 2.23 2.28 2.21 2.25 2.28 2.29 2.34 2.42 2.48 2.40 2.26 2.26 2.46 2.52 2.54 2.77 2.82 2.20 2.00 1.70 1.79 2.06 2.17 2.43 2.57 2.51 2.48 2.41
1.31 1.21 1.10 1.11 1.12 1.08 1.22 1.50 1.74 1.88 2.01 2.06 2.06 2.14 2.30 2.37 2.28 2.32 2.25 2.28 2.33 2.44 2.53 2.65 2.60 2.42 2.36 2.38 2.28 2.44 2.76 2.52 2.03 1.88 1.82 1.73 2.10 2.28 2.50 2.57 2.54 2.44 2.39
1.80 1.54 1.40 1.23 1.25 1.36 1.32 1.41 1.82 2.03 2.15 2.20 2.43 2.64 2.77 2.69 2.48 2.63 2.48 2.72 2.73 2.76 2.82 2.99 2.95 2.69 2.51 2.42 2.51 2.81 2.58 2.13 2.13 2.08 2.00 1.96 2.14 2.38 2.68 2.65 2.56 2.53 2.44
2.08 1.69 1.58 1.40 1.35 1.42 1.53 1.86 2.16 2.05 2.21 2.47 2.80 2.97 3.19 3.12 3.04 2.63 2.91 3.26 3.48 3.73 3.67 3.62 3.47 3.11 2.58 2.39 2.92 3.23 2.25 1.97 2.09 2.17 2.11 2.14 2.39 2.68 2.83 2.67 2.52 2.47 2.39
1.94 1.76 1.72 1.74 1.80 1.67 1.79 2.04 2.29 2.34 2.52 2.68 2.79 2.99 3.20 2.94 2.87 2.96 3.29 3.62 3.87 4.03 3.91 3.93 3.91 3.36 2.94 2.83 3.06 3.02 2.33 2.17 2.17 2.14 2.35 2.48 2.58 2.81 3.11 2.92 2.74 2.65 2.49
2.43 2.22 2.10 2.15 2.16 2.12 2.07 2.21 2.32 2.37 2.51 2.66 2.83 2.83 2.97 3.16 3.23 3.37 3.75 3.71 3.83 3.96 4.32 4.00 4.14 3.80 3.36 3.09 3.08 2.93 2.53 2.45 2.46 2.58 2.95 2.75 2.61 2.97 3.36 3.29 3.06 2.79 2.58
3.00 3.03 2.79 2.52 2.39 2.45 2.62 2.58 2.40 2.54 2.69 2.79 3.00 2.97 2.97 3.29 3.48 3.58 3.70 3.86 3.56 3.60 4.05 4.19 3.95 4.08 4.04 3.75 3.46 3.15 3.01 2.81 2.73 2.81 3.00 2.99 2.89 3.01 3.32 3.47 3.26 3.07 2.83
3.18 3.31 3.06 2.88 2.77 2.84 3.13 3.20 3.02 2.85 3.10 3.12 3.10 3.04 3.13 3.40 3.78 3.98 3.91 4.00 3.74 3.50 3.69 3.91 3.92 4.57 4.43 4.27 3.79 3.42 3.29 3.19 2.99 2.95 3.03 3.25 3.12 2.91 3.02 3.43 3.53 3.39 3.25
3.48 3.37 3.32 3.29 3.23 3.39 3.54 3.48 3.26 3.19 3.09 3.16 3.23 3.30 3.30 3.31 3.74 3.99 4.18 4.14 3.86 3.60 3.81 3.96 4.18 4.50 4.28 4.14 3.89 3.66 3.48 3.38 3.15 3.05 3.30 3.53 3.30 3.14 3.01 3.15 3.45 3.65 3.74
3.78 3.74 3.75 3.58 3.68 3.88 3.98 3.86 3.69 3.56 3.39 3.18 3.12 3.33 3.41 3.52 3.76 3.99 3.92 3.82 3.91 3.81 4.02 4.31 4.46 4.55 4.47 4.28 4.05 3.71 3.51 3.56 3.14 3.02 3.08 3.17 3.26 2.98 3.14 3.41 3.61 3.68 3.92
4.26 4.41 4.46 4.40 4.30 4.29 4.30 4.20 4.24 4.22 4.00 3.65 3.49 3.55 3.63 3.55 3.56 3.78 3.77 3.87 3.93 3.92 3.97 3.66 4.27 4.32 4.45 4.32 3.72 3.56 3.28 3.29 3.16 2.82 2.81 2.67 2.81 2.86 2.89 3.01 3.31 3.42 3.92
4.51 5.03 5.04 4.91 4.93 5.00 4.98 4.68 4.70 4.49 4.22 4.06 3.99 4.11 3.89 3.68 3.51 3.72 3.74 3.88 3.88 3.97 4.01 3.97 4.29 4.27 4.13 4.10 3.35 3.24 3.14 2.86 2.78 2.74 2.53 2.51 2.62 2.49 2.60 2.84 3.17 2.96 3.46
4.78 5.27 5.55 5.63 5.56 5.33 5.02 4.67 4.48 4.45 4.40 4.19 3.96 3.79 3.68 3.55 3.58 3.94 3.84 4.19 4.07 3.87 3.82 3.91 4.20 4.14 3.87 3.92 3.93 3.45 2.87 2.54 2.57 2.47 2.55 2.65 2.48 2.54 2.84 3.22 3.35 3.14 2.87
4.38 4.84 5.04 4.86 4.87 4.74 4.51 4.44 4.42 4.65 4.37 4.11 3.94 3.77 3.48 3.44 3.54 3.56 3.94 3.89 3.93 4.07 3.97 3.92 4.14 3.98 3.58 3.74 4.05 4.03 3.32 3.10 2.62 2.12 2.39 2.57 2.63 2.86 2.95 3.00 3.35 3.47 3.15
3.34 3.63 3.85 4.05 4.06 3.99 3.99 3.97 4.06 4.32 4.17 4.03 3.87 3.75 3.37 3.20 3.20 3.35 3.51 3.69 4.03 3.91 3.91 3.96 3.89 3.82 3.59 3.56 3.75 4.11 3.68 3.23 2.72 2.19 2.09 2.38 2.76 3.00 2.93 3.00 3.11 3.28 3.34
2.98 3.19 3.29 3.38 3.53 3.59 3.70 3.61 3.49 3.42 3.43 3.44 3.49 3.44 3.42 3.27 3.15 3.18 3.31 3.50 3.68 3.46 3.52 3.20 3.32 3.61 3.77 3.52 3.63 3.56 3.49 3.40 3.29 2.74 2.34 2.33 2.61 2.79 2.97 2.94 3.06 3.19 3.41
2.40 2.64 2.79 2.92 3.06 3.28 3.39 3.33 3.31 3.12 3.14 3.24 3.28 3.30 3.29 3.23 3.15 3.11 3.12 3.21 3.23 3.07 3.13 3.05 3.29 3.28 3.30 3.31 3.43 3.50 3.60 3.56 3.36 3.19 2.82 2.73 2.64 2.39 2.48 2.68 2.89 3.03 3.23
2.13 2.33 2.45 2.58 2.65 2.85 3.01 3.10 3.19 3.15 3.07 3.06 3.08 3.08 3.08 3.09 2.99 2.91 2.84 2.89 2.90 2.89 2.93 2.98 3.13 3.03 3.07 3.23 3.29 3.33 3.51 3.52 3.56 3.55 3.03 2.80 2.59 2.13 2.12 2.13 2.36 2.61 3.00